ALK185 VCBI-OPLA

Flight info

Callsign ALK185
Flight time N/A
Altitude 39000
Route SAGOR A465 MMV/N0441F380 W20 KAMGU Q24 PUKES DCT BAVOX DCT LOVGA DCT IGOLU DCT BUTOP A589 ASARI A466 SULOM
Aircraft A20N/M-SDE2E3FGHIRWXY/LB1

Departure

Time 2026-04-24 15:09
Airport Bandaranaike International Colombo Airport (VCBI)

Arrival

Time N/A
Airport Allama Iqbal International Airport (OPLA)
Time Latitude Longitude Altitude Speed Heading
2026-04-24 14:53 7.17615 79.88567 30 ft 0 kts 217°
2026-04-24 14:57 7.17623 79.88574 30 ft 3 kts 217°
2026-04-24 14:58 7.17638 79.88585 30 ft 3 kts 217°
2026-04-24 14:58 7.17653 79.88597 30 ft 3 kts 217°
2026-04-24 14:58 7.17668 79.88608 30 ft 3 kts 217°
2026-04-24 14:58 7.17681 79.88618 30 ft 3 kts 232°
2026-04-24 14:59 7.17688 79.88635 30 ft 3 kts 271°
2026-04-24 14:59 7.17684 79.88652 30 ft 0 kts 308°
2026-04-24 15:01 7.17686 79.88649 30 ft 2 kts 309°
2026-04-24 15:01 7.17703 79.88631 30 ft 4 kts 313°
2026-04-24 15:02 7.17730 79.88603 30 ft 9 kts 313°
2026-04-24 15:02 7.17772 79.88550 30 ft 10 kts 306°
2026-04-24 15:02 7.17811 79.88498 30 ft 9 kts 307°
2026-04-24 15:02 7.17848 79.88451 30 ft 8 kts 314°
2026-04-24 15:03 7.17896 79.88437 30 ft 7 kts 11°
2026-04-24 15:03 7.17931 79.88458 31 ft 6 kts 35°
2026-04-24 15:03 7.17971 79.88490 30 ft 9 kts 40°
2026-04-24 15:03 7.18034 79.88539 30 ft 13 kts 37°
2026-04-24 15:04 7.18120 79.88604 30 ft 17 kts 37°
2026-04-24 15:04 7.18216 79.88678 30 ft 17 kts 37°
2026-04-24 15:04 7.18309 79.88750 30 ft 17 kts 37°
2026-04-24 15:04 7.18400 79.88819 30 ft 16 kts 37°
2026-04-24 15:05 7.18488 79.88886 31 ft 15 kts 37°
2026-04-24 15:05 7.18572 79.88949 31 ft 15 kts 36°
2026-04-24 15:05 7.18652 79.89011 31 ft 14 kts 38°
2026-04-24 15:05 7.18730 79.89070 31 ft 14 kts 35°
2026-04-24 15:06 7.18805 79.89128 31 ft 13 kts 37°
2026-04-24 15:06 7.18877 79.89183 30 ft 13 kts 37°
2026-04-24 15:06 7.18962 79.89248 30 ft 15 kts 38°
2026-04-24 15:06 7.19043 79.89311 30 ft 14 kts 37°
2026-04-24 15:07 7.19129 79.89376 30 ft 17 kts 36°
2026-04-24 15:07 7.19212 79.89398 30 ft 12 kts 327°
2026-04-24 15:07 7.19263 79.89338 30 ft 11 kts 307°
2026-04-24 15:07 7.19284 79.89275 30 ft 9 kts 242°
2026-04-24 15:08 7.19140 79.89157 31 ft 56 kts 217°
2026-04-24 15:08 7.18674 79.88801 33 ft 113 kts 217°
2026-04-24 15:08 7.17904 79.88214 34 ft 161 kts 218°
2026-04-24 15:08 7.16989 79.87516 437 ft 162 kts 215°
2026-04-24 15:09 7.16094 79.86840 958 ft 160 kts 215°
2026-04-24 15:09 7.15203 79.86170 1468 ft 160 kts 214°
2026-04-24 15:09 7.14278 79.85466 1875 ft 181 kts 216°
2026-04-24 15:09 7.13291 79.84543 2256 ft 206 kts 231°
2026-04-24 15:10 7.12699 79.83127 2571 ft 236 kts 256°
2026-04-24 15:10 7.12533 79.81401 2942 ft 258 kts 270°
2026-04-24 15:10 7.12716 79.79563 3499 ft 270 kts 283°
2026-04-24 15:10 7.13345 79.77766 4151 ft 275 kts 297°
2026-04-24 15:11 7.14522 79.76249 4858 ft 277 kts 318°
2026-04-24 15:11 7.16034 79.75045 5577 ft 278 kts 334°
2026-04-24 15:11 7.17870 79.74470 6266 ft 278 kts 355°
2026-04-24 15:11 7.19792 79.74611 6931 ft 279 kts 16°
2026-04-24 15:12 7.21584 79.75369 7593 ft 281 kts 26°
2026-04-24 15:12 7.25145 79.77092 8966 ft 287 kts 30°
2026-04-24 15:12 7.26881 79.78109 9661 ft 290 kts 31°
2026-04-24 15:13 7.28721 79.78980 10224 ft 297 kts 24°
2026-04-24 15:13 7.30653 79.79869 10514 ft 314 kts 22°
2026-04-24 15:13 7.32797 79.80534 10777 ft 331 kts 14°
2026-04-24 15:13 7.35104 79.80912 11190 ft 340 kts
2026-04-24 15:14 7.37468 79.81204 11711 ft 344 kts 11°
2026-04-24 15:14 7.39844 79.81583 12279 ft 347 kts 10°
2026-04-24 15:14 7.42185 79.82215 12838 ft 350 kts 20°
2026-04-24 15:14 7.44440 79.83154 13423 ft 352 kts 26°
2026-04-24 15:15 7.46688 79.84077 13955 ft 356 kts 19°
2026-04-24 15:15 7.48985 79.85026 14446 ft 358 kts 25°
2026-04-24 15:15 7.51197 79.86203 14950 ft 361 kts 31°
2026-04-24 15:15 7.53387 79.87468 15450 ft 365 kts 26°
2026-04-24 15:16 7.55760 79.88400 15963 ft 368 kts 18°
2026-04-24 15:16 7.58256 79.89039 16456 ft 372 kts 11°
2026-04-24 15:16 7.60837 79.89349 16955 ft 376 kts
2026-04-24 15:16 7.63458 79.89506 17432 ft 379 kts
2026-04-24 15:17 7.66102 79.89622 17893 ft 382 kts
2026-04-24 15:17 7.68766 79.89748 18312 ft 385 kts
2026-04-24 15:17 7.71449 79.89899 18700 ft 387 kts
2026-04-24 15:17 7.74139 79.90078 19095 ft 388 kts
2026-04-24 15:18 7.76839 79.90277 19480 ft 390 kts
2026-04-24 15:18 7.79553 79.90489 19859 ft 392 kts
2026-04-24 15:18 7.82275 79.90707 20242 ft 393 kts
2026-04-24 15:18 7.85008 79.90927 20636 ft 395 kts
2026-04-24 15:19 7.87756 79.91149 21047 ft 397 kts
2026-04-24 15:19 7.90513 79.91370 21460 ft 398 kts
2026-04-24 15:19 7.93280 79.91591 21874 ft 400 kts
2026-04-24 15:19 7.96062 79.91813 22289 ft 402 kts
2026-04-24 15:20 7.98862 79.92037 22703 ft 404 kts
2026-04-24 15:20 8.01674 79.92261 23127 ft 406 kts
2026-04-24 15:20 8.04498 79.92486 23515 ft 409 kts
2026-04-24 15:20 8.07344 79.92712 23841 ft 412 kts
2026-04-24 15:21 8.10209 79.92940 24148 ft 415 kts
2026-04-24 15:21 8.13096 79.93170 24464 ft 418 kts
2026-04-24 15:21 8.16009 79.93401 24785 ft 421 kts
2026-04-24 15:21 8.18939 79.93634 25105 ft 424 kts
2026-04-24 15:22 8.21886 79.93868 25419 ft 427 kts
2026-04-24 15:22 8.24854 79.94104 25733 ft 429 kts
2026-04-24 15:22 8.27840 79.94341 26044 ft 432 kts
2026-04-24 15:23 8.33866 79.94820 26640 ft 437 kts
2026-04-24 15:23 8.39923 79.95301 27220 ft 442 kts
2026-04-24 15:23 8.42995 79.95545 27506 ft 444 kts
2026-04-24 15:24 8.52308 79.96286 28339 ft 451 kts
2026-04-24 15:25 8.57567 79.96705 28806 ft 454 kts
2026-04-24 15:25 8.64928 79.97293 29431 ft 459 kts
2026-04-24 15:26 8.74520 79.98059 30161 ft 464 kts
2026-04-24 15:27 8.84240 79.98835 30825 ft 468 kts
2026-04-24 15:27 8.93996 79.99615 31604 ft 469 kts
2026-04-24 15:28 9.05931 80.00570 32508 ft 471 kts
2026-04-24 15:29 9.12474 80.01095 32987 ft 472 kts
2026-04-24 15:30 9.22294 80.01882 33706 ft 472 kts
2026-04-24 15:31 9.35384 80.02933 34616 ft 470 kts
2026-04-24 15:32 9.48401 80.03978 35455 ft 468 kts
2026-04-24 15:33 9.61390 80.05022 36168 ft 468 kts
2026-04-24 15:33 9.71125 80.05805 36641 ft 468 kts
2026-04-24 15:34 9.77624 80.06327 36948 ft 468 kts
2026-04-24 15:35 9.87377 80.07110 37370 ft 469 kts
2026-04-24 15:35 9.93886 80.07635 37626 ft 470 kts
2026-04-24 15:35 9.97143 80.07897 37744 ft 470 kts
2026-04-24 15:36 10.00405 80.08141 37869 ft 470 kts
2026-04-24 15:36 10.06937 80.08341 38102 ft 470 kts 359°
2026-04-24 15:36 10.10209 80.08372 38213 ft 470 kts 358°
2026-04-24 15:37 10.13477 80.08396 38318 ft 470 kts 358°
2026-04-24 15:37 10.16752 80.08423 38419 ft 470 kts 358°
2026-04-24 15:37 10.20025 80.08457 38523 ft 471 kts 358°
2026-04-24 15:37 10.23302 80.08499 38618 ft 471 kts 358°
2026-04-24 15:38 10.26574 80.08547 38722 ft 470 kts 358°
2026-04-24 15:38 10.29800 80.08598 38827 ft 470 kts 358°
2026-04-24 15:38 10.36348 80.08704 38861 ft 471 kts 358°
2026-04-24 15:39 10.42896 80.08815 38860 ft 470 kts 358°
2026-04-24 15:39 10.49435 80.08926 38857 ft 470 kts 358°
2026-04-24 15:40 10.55980 80.09032 38854 ft 470 kts 358°
2026-04-24 15:40 10.62522 80.09138 38854 ft 470 kts 358°
2026-04-24 15:41 10.69071 80.09243 38864 ft 471 kts 358°
2026-04-24 15:41 10.75620 80.09354 38863 ft 471 kts 358°
2026-04-24 15:42 10.82173 80.09480 38857 ft 471 kts 358°
2026-04-24 15:42 10.88716 80.09608 38863 ft 470 kts 358°
2026-04-24 15:43 10.95245 80.09735 38853 ft 469 kts 358°
2026-04-24 15:43 11.01767 80.09860 38851 ft 468 kts 358°
2026-04-24 15:44 11.08273 80.09985 38852 ft 467 kts 358°
2026-04-24 15:44 11.14770 80.10110 38863 ft 467 kts 358°
2026-04-24 15:45 11.21259 80.10234 38846 ft 466 kts 358°
2026-04-24 15:45 11.27732 80.10359 38861 ft 465 kts 358°
2026-04-24 15:46 11.34192 80.10483 38849 ft 464 kts 358°
2026-04-24 15:46 11.40637 80.10607 38858 ft 463 kts 358°
2026-04-24 15:47 11.47068 80.10731 38847 ft 462 kts 358°
2026-04-24 15:47 11.53482 80.10855 38847 ft 461 kts 358°
2026-04-24 15:48 11.59845 80.10977 38846 ft 460 kts 358°
2026-04-24 15:48 11.66245 80.11101 38848 ft 460 kts 358°
2026-04-24 15:49 11.72642 80.11224 38860 ft 460 kts 358°
2026-04-24 15:49 11.79042 80.11347 38846 ft 460 kts 358°
2026-04-24 15:50 11.85445 80.11472 38848 ft 460 kts 358°
2026-04-24 15:50 11.91848 80.11663 38858 ft 461 kts 359°
2026-04-24 15:51 11.98257 80.11899 38857 ft 461 kts 359°
2026-04-24 15:51 12.04665 80.12136 38847 ft 461 kts 359°
2026-04-24 15:52 12.11090 80.12366 38856 ft 462 kts 359°
2026-04-24 15:52 12.17525 80.12593 38852 ft 463 kts 359°
2026-04-24 15:53 12.23979 80.12820 38851 ft 464 kts 359°
2026-04-24 15:53 12.30438 80.13047 38844 ft 465 kts 359°
2026-04-24 15:54 12.36917 80.13276 38842 ft 466 kts 359°
2026-04-24 15:54 12.43408 80.13505 38853 ft 467 kts 358°
2026-04-24 15:55 12.49864 80.13734 38855 ft 468 kts 358°
2026-04-24 15:55 12.56379 80.13964 38853 ft 469 kts 358°
2026-04-24 15:56 12.62901 80.14195 38840 ft 470 kts 358°
2026-04-24 15:56 12.69436 80.14427 38849 ft 470 kts 358°
2026-04-24 15:57 12.75988 80.14659 38856 ft 471 kts 358°
2026-04-24 15:57 12.82547 80.14891 38850 ft 472 kts 358°
2026-04-24 15:58 12.89112 80.15124 38865 ft 472 kts 358°
2026-04-24 15:58 12.95679 80.15324 38852 ft 471 kts 353°
2026-04-24 15:59 13.02021 80.14202 38854 ft 459 kts 338°
2026-04-24 15:59 13.08086 80.12146 38856 ft 459 kts 335°
2026-04-24 16:00 13.14087 80.09910 38850 ft 459 kts 334°
2026-04-24 16:00 13.20089 80.07662 38844 ft 459 kts 334°
2026-04-24 16:01 13.26106 80.05435 38848 ft 460 kts 334°
2026-04-24 16:01 13.32131 80.03219 38843 ft 460 kts 334°
2026-04-24 16:02 13.38164 80.01002 38861 ft 460 kts 334°
2026-04-24 16:02 13.44194 79.98785 38850 ft 460 kts 334°
2026-04-24 16:03 13.50222 79.96566 38845 ft 460 kts 334°
2026-04-24 16:03 13.56254 79.94345 38848 ft 460 kts 334°
2026-04-24 16:04 13.62287 79.92122 38843 ft 461 kts 334°
2026-04-24 16:04 13.68281 79.89912 38842 ft 461 kts 334°
2026-04-24 16:05 13.77375 79.86557 38840 ft 461 kts 334°
2026-04-24 16:06 13.86432 79.83212 38835 ft 461 kts 334°
2026-04-24 16:07 13.95453 79.79879 38832 ft 461 kts 334°
2026-04-24 16:07 14.04515 79.76526 38834 ft 461 kts 334°
2026-04-24 16:08 14.13577 79.73172 38836 ft 461 kts 334°
2026-04-24 16:09 14.22637 79.69814 38841 ft 461 kts 334°
2026-04-24 16:09 14.28679 79.67574 38844 ft 461 kts 334°
2026-04-24 16:11 14.43776 79.61971 38848 ft 461 kts 334°
2026-04-24 16:11 14.49812 79.59729 38852 ft 461 kts 334°
2026-04-24 16:12 14.58858 79.56366 38852 ft 460 kts 334°
2026-04-24 16:13 14.67893 79.53004 38855 ft 460 kts 334°
2026-04-24 16:14 14.79935 79.48518 38861 ft 460 kts 334°
2026-04-24 16:14 14.88955 79.45155 38865 ft 459 kts 334°
2026-04-24 16:15 14.98023 79.41925 38875 ft 463 kts 339°
2026-04-24 16:16 15.06357 79.39792 38879 ft 464 kts 340°
2026-04-24 16:17 15.22078 79.36019 38887 ft 464 kts 340°
2026-04-24 16:18 15.34646 79.32976 38896 ft 464 kts 340°
2026-04-24 16:19 15.44066 79.30691 38896 ft 463 kts 340°
2026-04-24 16:20 15.53485 79.28404 38899 ft 463 kts 340°
2026-04-24 16:20 15.62902 79.26116 38905 ft 463 kts 340°
2026-04-24 16:21 15.72314 79.23827 38909 ft 463 kts 340°
2026-04-24 16:22 15.78587 79.22300 38912 ft 463 kts 340°
2026-04-24 16:22 15.87990 79.20010 38916 ft 463 kts 340°
2026-04-24 16:23 15.94258 79.18482 38921 ft 463 kts 340°
2026-04-24 16:24 16.03664 79.16199 38923 ft 463 kts 340°
2026-04-24 16:24 16.09931 79.14689 38925 ft 462 kts 340°
2026-04-24 16:25 16.16201 79.13176 38928 ft 462 kts 340°
2026-04-24 16:25 16.22465 79.11664 38923 ft 462 kts 340°
2026-04-24 16:26 16.31817 79.09402 38922 ft 462 kts 340°
2026-04-24 16:27 16.41207 79.07130 38922 ft 462 kts 340°
2026-04-24 16:27 16.47468 79.05614 38921 ft 462 kts 340°
2026-04-24 16:28 16.53719 79.04099 38922 ft 461 kts 340°
2026-04-24 16:28 16.63093 79.01825 38916 ft 461 kts 340°
2026-04-24 16:29 16.69344 79.00307 38915 ft 461 kts 340°
2026-04-24 16:30 16.81850 78.97268 38920 ft 461 kts 340°
2026-04-24 16:30 16.88102 78.95747 38916 ft 461 kts 340°
2026-04-24 16:31 16.94355 78.94225 38922 ft 461 kts 339°
2026-04-24 16:31 17.00611 78.92701 38920 ft 462 kts 339°
2026-04-24 16:32 17.06864 78.91176 38926 ft 462 kts 339°
2026-04-24 16:32 17.13125 78.89649 38924 ft 462 kts 339°
2026-04-24 16:33 17.19387 78.88120 38926 ft 462 kts 339°
2026-04-24 16:33 17.25658 78.86588 38926 ft 463 kts 339°
2026-04-24 16:34 17.31934 78.85054 38927 ft 463 kts 339°
2026-04-24 16:34 17.38216 78.83518 38928 ft 463 kts 339°
2026-04-24 16:35 17.44497 78.81980 38932 ft 464 kts 339°
2026-04-24 16:35 17.50781 78.80447 38938 ft 464 kts 339°
2026-04-24 16:36 17.57070 78.78923 38938 ft 464 kts 339°
2026-04-24 16:36 17.63365 78.77398 38941 ft 464 kts 339°
2026-04-24 16:37 17.69659 78.75871 38935 ft 464 kts 339°
2026-04-24 16:37 17.75952 78.74342 38938 ft 465 kts 339°
2026-04-24 16:38 17.82253 78.72810 38941 ft 465 kts 339°
2026-04-24 16:38 17.88511 78.71288 38941 ft 465 kts 339°
2026-04-24 16:39 17.94808 78.69755 38945 ft 465 kts 339°
2026-04-24 16:39 18.01112 78.68220 38942 ft 465 kts 339°
2026-04-24 16:40 18.07418 78.66682 38940 ft 465 kts 339°
2026-04-24 16:40 18.13709 78.65144 38942 ft 462 kts 340°
2026-04-24 16:41 18.19935 78.63607 38945 ft 458 kts 340°
2026-04-24 16:41 18.26138 78.62067 38940 ft 458 kts 339°
2026-04-24 16:42 18.32336 78.60527 38940 ft 458 kts 340°
2026-04-24 16:42 18.38532 78.58989 38943 ft 458 kts 339°
2026-04-24 16:43 18.44730 78.57450 38943 ft 458 kts 339°
2026-04-24 16:43 18.50928 78.55910 38938 ft 458 kts 339°
2026-04-24 16:44 18.57128 78.54369 38923 ft 458 kts 339°
2026-04-24 16:44 18.63287 78.52836 38920 ft 458 kts 339°
2026-04-24 16:45 18.69489 78.51292 38925 ft 458 kts 339°
2026-04-24 16:45 18.75691 78.49747 38916 ft 458 kts 339°
2026-04-24 16:46 18.81890 78.48201 38913 ft 458 kts 339°
2026-04-24 16:46 18.88096 78.46652 38916 ft 458 kts 339°
2026-04-24 16:47 18.94297 78.45103 38912 ft 458 kts 339°
2026-04-24 16:47 19.00497 78.43554 38910 ft 458 kts 339°
2026-04-24 16:48 19.06694 78.42004 38909 ft 458 kts 339°
2026-04-24 16:48 19.12891 78.40452 38907 ft 458 kts 339°
2026-04-24 16:49 19.19083 78.38887 38906 ft 457 kts 339°
2026-04-24 16:49 19.25254 78.37267 38909 ft 457 kts 338°
2026-04-24 16:50 19.31414 78.35633 38906 ft 457 kts 338°
2026-04-24 16:50 19.37574 78.34002 38905 ft 456 kts 338°
2026-04-24 16:51 19.43734 78.32375 38902 ft 456 kts 338°
2026-04-24 16:51 19.49891 78.30749 38901 ft 456 kts 338°
2026-04-24 16:52 19.56044 78.29123 38893 ft 456 kts 338°
2026-04-24 16:52 19.62158 78.27515 38892 ft 456 kts 338°
2026-04-24 16:53 19.68311 78.25904 38886 ft 455 kts 338°
2026-04-24 16:53 19.74446 78.24298 38884 ft 454 kts 338°
2026-04-24 16:54 19.80574 78.22690 38877 ft 453 kts 338°
2026-04-24 16:54 19.86696 78.21083 38883 ft 453 kts 338°
2026-04-24 16:55 19.92807 78.19477 38879 ft 452 kts 338°
2026-04-24 16:55 19.98911 78.17871 38869 ft 452 kts 338°
2026-04-24 16:56 20.05009 78.16265 38871 ft 451 kts 338°
2026-04-24 16:56 20.11102 78.14660 38871 ft 451 kts 338°
2026-04-24 16:57 20.17193 78.13054 38865 ft 451 kts 338°
2026-04-24 16:57 20.23272 78.11450 38869 ft 450 kts 338°
2026-04-24 16:58 20.29353 78.09844 38865 ft 450 kts 338°
2026-04-24 16:58 20.35424 78.08239 38872 ft 449 kts 338°
2026-04-24 16:59 20.41488 78.06636 38861 ft 449 kts 338°
2026-04-24 17:00 20.50566 78.04232 38860 ft 448 kts 338°
2026-04-24 17:00 20.59598 78.01876 38855 ft 448 kts 339°
2026-04-24 17:01 20.68707 77.99653 38860 ft 447 kts 339°
2026-04-24 17:02 20.77813 77.97434 38859 ft 447 kts 339°
2026-04-24 17:02 20.83880 77.95945 38860 ft 447 kts 339°
2026-04-24 17:03 20.92979 77.93707 38862 ft 447 kts 339°
2026-04-24 17:04 20.99047 77.92214 38867 ft 447 kts 339°
2026-04-24 17:04 21.08147 77.89972 38873 ft 448 kts 339°
2026-04-24 17:05 21.13191 77.88728 38875 ft 447 kts 339°
2026-04-24 17:06 21.22290 77.86482 38883 ft 447 kts 339°
2026-04-24 17:06 21.31373 77.84238 38890 ft 446 kts 339°
2026-04-24 17:07 21.37425 77.82740 38901 ft 446 kts 339°
2026-04-24 17:08 21.49525 77.79742 38905 ft 446 kts 339°
2026-04-24 17:08 21.55570 77.78243 38909 ft 446 kts 339°
2026-04-24 17:09 21.67654 77.75243 38912 ft 446 kts 339°
2026-04-24 17:10 21.79736 77.72237 38910 ft 446 kts 340°
2026-04-24 17:12 22.03900 77.66210 38900 ft 445 kts 340°